Location: Deerlick Astronomy Village
(33.5614°N, 82.7631°W)
Time: 03:31:46
(UTC-05:00)

N. Korean satellite - Visible Passes

Search period start: 23 January 2020 00:00
Search period end: 02 February 2020 00:00
Orbit: 454 x 507 km, 97.2° (Epoch: 22 January)

Date Brightness Start Highest point End Pass type
(mag) Time Alt. Az. Time Alt. Az. Time Alt. Az.
23 Jan 6.4 06:22:01 10° N 06:25:35 74° WNW 06:29:11 10° SSW visible
23 Jan 9.7 18:28:00 10° SW 18:30:14 16° W 18:32:27 10° NW visible
24 Jan 7.7 05:56:39 10° NNE 06:00:06 44° E 06:03:35 10° S visible
25 Jan 9.4 05:31:51 10° NE 05:34:33 20° E 05:37:15 10° SE visible
25 Jan 8.0 07:05:13 10° NNW 07:07:46 19° WNW 07:10:20 10° WSW visible
26 Jan 7.0 06:39:01 10° N 06:42:25 40° WNW 06:45:50 10° SW visible
27 Jan 6.6 06:13:21 10° NNE 06:16:59 83° ESE 06:20:38 10° S visible
27 Jan 9.6 18:18:52 10° SSW 18:21:32 21° W 18:24:13 10° NW visible
28 Jan 8.4 05:48:09 10° NNE 05:51:28 34° E 05:54:49 10° SSE visible
29 Jan 9.7 05:23:38 10° ENE 05:25:52 16° E 05:28:08 10° SE visible
29 Jan 7.7 06:56:14 10° NNW 06:59:11 24° WNW 07:02:10 10° SW visible
30 Jan 6.7 06:30:15 10° N 06:33:48 54° WNW 06:37:24 10° SSW visible
30 Jan 10.0 18:36:57 10° WSW 18:38:28 12° W 18:39:58 10° WNW visible
31 Jan 7.1 06:04:44 10° NNE 06:08:21 61° E 06:11:59 10° S visible
01 Feb 8.9 05:39:41 10° NE 05:42:48 26° E 05:45:57 10° SSE visible
